Weather History for Fryeburg, ME

Change the Weather History Date:

Friday, October 5, 2012

  Actual Average Record
Temperature  
Mean Temperature 65 °F -  
Max Temperature 75 °F 61 °F 82 °F (2007)
Min Temperature 55 °F 34 °F 19 °F (1996)
Growing Degree Days 15 (Base 50)    
Moisture  
Dew Point 57 °F    
Average Humidity 88    
Maximum Humidity 100    
Minimum Humidity 52    
Precipitation  
Precipitation 0.00 in - - ()
Sea Level Pressure  
Sea Level Pressure 29.97 in    
Wind  
Wind Speed 1 mph (South)    
Max Wind Speed 7 mph    
Max Gust Speed -    
Visibility 8 miles    
Events Fog , Rain    
Averages and records for this station are not official NWS values.
T = Trace of Precipitation, MM = Missing Value Source: NWS Daily Summary

Daily Weather History Graph

Daily Weather History Graph

Search for Another Location

Airport:

Trip Planner

Search our weather history database for the weather conditions in past years. The results will help you decide how hot, cold, wet, or windy it might be!

Date:

Astronomy

Oct. 05, 2012 Rise Set
Actual Time 6:46 AM EDT 6:16 PM EDT
Civil Twilight 6:17 AM EDT 6:45 PM EDT
Nautical Twilight 5:44 AM EDT 7:18 PM EDT
Astronomical Twilight 5:10 AM EDT 7:52 PM EDT
Moon 9:27 PM EDT (10/5) 12:01 PM EDT (10/5)
Length of Visible Light 12h 27m
Length of Day
11h 29m
Waning Gibbous, 74% of the Moon is Illuminated
Oct 5
Waning Gibbous
Oct 8
Last Quarter
Oct 15
New
Oct 21
First Quarter
Oct 29
Full

Hourly Weather History & Observations

Time (EDT) Temp. Dew Point Humidity Pressure Visibility Wind Dir Wind Speed Gust Speed Precip Events Conditions
12:17 AM 59.0 °F 57.2 °F 94% 30.02 in 10.0 mi Calm Calm - N/A   Overcast
12:54 AM 59.0 °F 59.0 °F 100% 30.02 in 4.0 mi Calm Calm - N/A   Overcast
1:06 AM 59.0 °F 57.2 °F 94% 30.02 in 4.0 mi Calm Calm - N/A   Overcast
1:27 AM 59.0 °F 57.2 °F 94% 30.01 in 5.0 mi Calm Calm - N/A   Overcast
1:54 AM 59.0 °F 57.9 °F 96% 30.02 in 10.0 mi Calm Calm - N/A   Overcast
2:52 AM 57.2 °F 57.2 °F 100% 29.99 in 1.5 mi ESE 3.5 mph - N/A   Overcast
2:54 AM 57.9 °F 57.0 °F 97% 30.00 in 1.0 mi Calm Calm - N/A   Overcast
3:03 AM 57.2 °F 57.2 °F 100% 29.99 in 0.8 mi Calm Calm - N/A   Overcast
3:10 AM 55.4 °F 55.4 °F 100% 29.99 in 0.5 mi Calm Calm - N/A Fog Fog
3:20 AM 55.4 °F 55.4 °F 100% 29.99 in 1.5 mi Calm Calm - N/A   Mostly Cloudy
3:22 AM 55.4 °F 55.4 °F 100% 29.99 in 4.0 mi Calm Calm - N/A   Mostly Cloudy
3:54 AM 57.9 °F 57.0 °F 97% 29.99 in 10.0 mi Calm Calm - 0.00 in   Overcast
4:54 AM 57.9 °F 57.0 °F 97% 30.00 in 10.0 mi Calm Calm - N/A   Overcast
5:54 AM 57.0 °F 55.9 °F 96% 30.00 in 10.0 mi Calm Calm - N/A   Overcast
6:06 AM 55.4 °F 55.4 °F 100% 30.00 in 10.0 mi Calm Calm - N/A   Overcast
6:54 AM 57.0 °F 55.9 °F 96% 30.01 in 8.0 mi Calm Calm - N/A   Overcast
7:54 AM 57.0 °F 55.9 °F 96% 30.00 in 4.0 mi ESE 4.6 mph - N/A   Overcast
8:24 AM 59.0 °F 57.2 °F 94% 30.00 in 10.0 mi Calm Calm - N/A   Overcast
8:54 AM 59.0 °F 55.9 °F 90% 30.00 in 10.0 mi Calm Calm - N/A   Overcast
9:54 AM 60.1 °F 57.0 °F 90% 30.01 in 10.0 mi Calm Calm - 0.00 in   Overcast
10:54 AM 64.0 °F 59.0 °F 84% 29.99 in 10.0 mi Calm Calm - N/A   Mostly Cloudy
11:43 AM 64.4 °F 59.0 °F 83% 29.98 in 10.0 mi Calm Calm - N/A   Partly Cloudy
11:54 AM 66.0 °F 59.0 °F 78% 29.99 in 10.0 mi Calm Calm - N/A   Partly Cloudy
12:54 PM 70.0 °F 60.1 °F 71% 29.96 in 10.0 mi Calm Calm - 0.00 in Rain Light Rain
1:54 PM 73.9 °F 55.0 °F 52% 29.94 in 10.0 mi Calm Calm - 0.00 in   Clear
2:54 PM 75.0 °F 57.0 °F 53% 29.91 in 10.0 mi South 5.8 mph - N/A   Clear
3:54 PM 75.0 °F 57.9 °F 55% 29.89 in 10.0 mi SE 5.8 mph - 0.00 in   Clear
4:54 PM 73.0 °F 57.0 °F 57% 29.90 in 10.0 mi SSW 4.6 mph - N/A   Clear
5:54 PM 68.0 °F 55.9 °F 65% 29.89 in 10.0 mi SW 6.9 mph - N/A   Clear
6:54 PM 64.0 °F 57.0 °F 78% 29.90 in 10.0 mi Calm Calm - N/A   Clear
7:54 PM 59.0 °F 57.0 °F 93% 29.91 in 10.0 mi Calm Calm - 0.00 in   Scattered Clouds
8:54 PM 55.9 °F 55.0 °F 97% 29.90 in 7.0 mi Calm Calm - N/A   Clear
9:54 PM 55.9 °F 55.0 °F 97% 29.89 in 6.0 mi South 4.6 mph - N/A   Clear
10:54 PM 55.9 °F 55.0 °F 97% 29.89 in 9.0 mi WSW 3.5 mph - N/A   Clear
11:54 PM 63.0 °F 57.0 °F 81% 29.88 in 10.0 mi WSW 4.6 mph - N/A   Clear